When you browse on this site, cookies collect data to enhance your experience and personalize the content and advertising you see.
Visit our Privacy Policy to learn more. By continuing to use the site, you agree to this use of cookies and data.
  • In Switzerland
  • List of Countries
  • For 7 days
  • Water Temperature
  • Weather Map
  • Weather Widgets
  • user-avatar
    Login

    Hourly Weather Madison

    Today, 10 December, Tuesday

    Time Temperature Precipitation Wind Pressure Humidity
    00:00 -12°C° 0 mm 6 mps 734 mmHg 79%
    01:00 -14°C° 0 mm 6 mps 735 mmHg 79%
    02:00 -14°C° 0 mm 6 mps 736 mmHg 78%
    03:00 -15°C° 0 mm 6 mps 736 mmHg 77%
    04:00 -16°C° 0 mm 6 mps 737 mmHg 77%
    05:00 -16°C° 0 mm 6 mps 738 mmHg 77%
    06:00 -16°C° 0 mm 4 mps 739 mmHg 82%
    07:00 -16°C° 0 mm 4 mps 739 mmHg 78%
    08:00 -16°C° 0 mm 4 mps 740 mmHg 75%
    09:00 -17°C° 0 mm 5 mps 741 mmHg 72%
    10:00 -15°C° 0 mm 4 mps 741 mmHg 66%
    11:00 -14°C° 0 mm 4 mps 741 mmHg 60%
    12:00 -14°C° 0 mm 4 mps 742 mmHg 54%
    13:00 -14°C° 0 mm 5 mps 742 mmHg 52%
    14:00 -14°C° 0 mm 5 mps 742 mmHg 50%
    15:00 -13°C° 0 mm 5 mps 742 mmHg 48%
    16:00 -14°C° 0 mm 5 mps 742 mmHg 57%
    17:00 -15°C° 0 mm 5 mps 743 mmHg 65%
    18:00 -17°C° 0 mm 5 mps 743 mmHg 73%
    19:00 -17°C° 0 mm 5 mps 743 mmHg 73%
    20:00 -18°C° 0 mm 5 mps 743 mmHg 74%
    21:00 -19°C° 0 mm 5 mps 743 mmHg 74%
    22:00 -18°C° 0 mm 4 mps 744 mmHg 73%
    23:00 -19°C° 0 mm 4 mps 744 mmHg 71%

    Tomorrow, 11 December, Wednesday

    Time Temperature Precipitation Wind Pressure Humidity
    00:00 -19°C° 0 mm 4 mps 744 mmHg 70%
    01:00 -19°C° 0 mm 4 mps 744 mmHg 71%
    02:00 -19°C° 0 mm 4 mps 743 mmHg 72%
    03:00 -19°C° 0 mm 5 mps 743 mmHg 73%
    04:00 -19°C° 0 mm 5 mps 744 mmHg 72%
    05:00 -18°C° 0 mm 5 mps 744 mmHg 72%
    06:00 -18°C° 0 mm 5 mps 745 mmHg 71%
    07:00 -18°C° 0 mm 5 mps 745 mmHg 68%
    08:00 -19°C° 0 mm 5 mps 746 mmHg 65%
    09:00 -19°C° 0 mm 5 mps 747 mmHg 62%
    10:00 -17°C° 0 mm 4 mps 747 mmHg 57%
    11:00 -17°C° 0 mm 4 mps 748 mmHg 52%
    12:00 -15°C° 0 mm 3 mps 748 mmHg 48%
    13:00 -13°C° 0 mm 2 mps 748 mmHg 46%
    14:00 -13°C° 0 mm 2 mps 748 mmHg 44%
    15:00 -10°C° 0 mm 1 mps 748 mmHg 42%
    16:00 -11°C° 0 mm 1 mps 749 mmHg 45%
    17:00 -11°C° 0 mm 1 mps 749 mmHg 48%
    18:00 -11°C° 0 mm 0 mps 749 mmHg 52%
    19:00 -11°C° 0 mm 1 mps 749 mmHg 51%
    20:00 -11°C° 0 mm 1 mps 749 mmHg 51%
    21:00 -10°C° 0 mm 1 mps 748 mmHg 50%
    22:00 -12°C° 0 mm 2 mps 748 mmHg 49%
    23:00 -13°C° 0 mm 3 mps 748 mmHg 48%

    Day after tomorrow, 12 December, Thursday

    Time Temperature Precipitation Wind Pressure Humidity
    00:00 -12°C° 0 mm 3 mps 748 mmHg 47%
    01:00 -12°C° 0 mm 4 mps 747 mmHg 50%
    02:00 -11°C° 0 mm 4 mps 746 mmHg 52%
    03:00 -11°C° 0 mm 4 mps 746 mmHg 54%
    04:00 -11°C° 0 mm 5 mps 745 mmHg 60%
    05:00 -10°C° 0 mm 5 mps 744 mmHg 66%
    06:00 -10°C° 0 mm 6 mps 743 mmHg 72%
    07:00 -9°C° 0 mm 6 mps 743 mmHg 74%
    08:00 -8°C° 0 mm 7 mps 742 mmHg 75%
    09:00 -7°C° 0 mm 7 mps 741 mmHg 77%
    10:00 -4°C° 0.3 mm 7 mps 741 mmHg 81%
    11:00 -4°C° 0.3 mm 8 mps 740 mmHg 86%
    12:00 -2°C° 0.3 mm 8 mps 739 mmHg 90%
    13:00 -2°C° 0.6 mm 8 mps 739 mmHg 92%
    14:00 -2°C° 0.6 mm 7 mps 738 mmHg 93%
    15:00 -2°C° 0.6 mm 7 mps 738 mmHg 95%
    16:00 -2°C° 0 mm 6 mps 738 mmHg 88%
    17:00 -1°C° 0 mm 5 mps 738 mmHg 81%
    18:00 0°C° 0 mm 4 mps 738 mmHg 74%
    19:00 -1°C° 0 mm 4 mps 738 mmHg 76%
    20:00 -1°C° 0 mm 4 mps 738 mmHg 78%
    21:00 -1°C° 0 mm 4 mps 738 mmHg 80%
    22:00 -1°C° 0 mm 3 mps 737 mmHg 83%
    23:00 -2°C° 0 mm 3 mps 737 mmHg 87%

    13 December, Friday

    Time Temperature Precipitation Wind Pressure Humidity
    00:00 -2°C° 0 mm 3 mps 737 mmHg 91%
    01:00 -3°C° 0 mm 2 mps 737 mmHg 93%
    02:00 -3°C° 0 mm 2 mps 737 mmHg 94%
    03:00 -1°C° 0 mm 1 mps 737 mmHg 96%
    04:00 -1°C° 0 mm 1 mps 737 mmHg 96%
    05:00 -1°C° 0 mm 1 mps 737 mmHg 96%
    06:00 0°C° 0 mm 1 mps 736 mmHg 96%
    07:00 0°C° 0 mm 1 mps 736 mmHg 94%
    08:00 0°C° 0 mm 1 mps 736 mmHg 93%
    09:00 0°C° 0 mm 1 mps 736 mmHg 92%
    10:00 +1°C° 0 mm 1 mps 736 mmHg 90%
    11:00 -1°C° 0 mm 2 mps 735 mmHg 88%
    12:00 +1°C° 0 mm 2 mps 735 mmHg 87%
    13:00 +1°C° 0 mm 2 mps 734 mmHg 88%
    14:00 +1°C° 0 mm 2 mps 733 mmHg 89%
    15:00 +2°C° 0 mm 2 mps 733 mmHg 90%
    16:00 +1°C° 0 mm 2 mps 733 mmHg 91%
    17:00 +1°C° 0 mm 2 mps 732 mmHg 92%
    18:00 -1°C° 0 mm 2 mps 732 mmHg 94%
    19:00 -1°C° 0 mm 2 mps 732 mmHg 94%
    20:00 -1°C° 0 mm 3 mps 732 mmHg 95%
    21:00 -1°C° 0 mm 3 mps 731 mmHg 95%
    22:00 -1°C° 0 mm 3 mps 731 mmHg 95%
    23:00 -1°C° 0 mm 2 mps 730 mmHg 96%

    14 December, Saturday

    Time Temperature Precipitation Wind Pressure Humidity
    00:00 -1°C° 0 mm 2 mps 729 mmHg 96%
    01:00 -1°C° 0.3 mm 2 mps 729 mmHg 97%
    02:00 -1°C° 0.3 mm 2 mps 728 mmHg 97%
    03:00 +1°C° 0.3 mm 2 mps 728 mmHg 97%
    04:00 -1°C° 0.2 mm 3 mps 728 mmHg 97%
    05:00 -2°C° 0.2 mm 4 mps 728 mmHg 97%
    06:00 -2°C° 0.2 mm 5 mps 728 mmHg 96%
    07:00 -5°C° 0 mm 5 mps 728 mmHg 92%
    08:00 -8°C° 0 mm 6 mps 729 mmHg 88%
    09:00 -10°C° 0 mm 6 mps 729 mmHg 84%
    10:00 -10°C° 0 mm 6 mps 729 mmHg 82%
    11:00 -12°C° 0 mm 7 mps 729 mmHg 80%
    12:00 -12°C° 0 mm 7 mps 730 mmHg 77%
    13:00 -12°C° 0 mm 7 mps 730 mmHg 77%
    14:00 -12°C° 0 mm 7 mps 730 mmHg 76%
    15:00 -13°C° 0 mm 7 mps 731 mmHg 76%
    16:00 -13°C° 0 mm 7 mps 731 mmHg 77%
    17:00 -14°C° 0 mm 7 mps 732 mmHg 79%
    18:00 -15°C° 0 mm 7 mps 733 mmHg 80%
    19:00 -16°C° 0 mm 6 mps 733 mmHg 80%
    20:00 -16°C° 0 mm 6 mps 734 mmHg 80%
    21:00 -17°C° 0 mm 6 mps 734 mmHg 80%
    22:00 -17°C° 0 mm 6 mps 735 mmHg 81%
    23:00 -18°C° 0 mm 5 mps 735 mmHg 81%

    15 December, Sunday

    Time Temperature Precipitation Wind Pressure Humidity
    00:00 -18°C° 0 mm 5 mps 736 mmHg 81%
    01:00 -18°C° 0 mm 5 mps 736 mmHg 81%
    02:00 -19°C° 0 mm 5 mps 737 mmHg 81%
    03:00 -19°C° 0 mm 5 mps 737 mmHg 80%
    04:00 -19°C° 0 mm 5 mps 738 mmHg 80%
    05:00 -19°C° 0 mm 4 mps 738 mmHg 80%
    06:00 -19°C° 0 mm 4 mps 739 mmHg 80%
    07:00 -19°C° 0 mm 4 mps 739 mmHg 78%
    08:00 -18°C° 0 mm 4 mps 740 mmHg 77%
    09:00 -17°C° 0 mm 3 mps 741 mmHg 75%
    10:00 -16°C° 0 mm 3 mps 741 mmHg 70%
    11:00 -15°C° 0 mm 3 mps 741 mmHg 65%
    12:00 -13°C° 0 mm 2 mps 741 mmHg 60%
    13:00 -12°C° 0 mm 2 mps 741 mmHg 59%
    14:00 -12°C° 0 mm 2 mps 741 mmHg 58%
    15:00 -10°C° 0 mm 2 mps 741 mmHg 56%
    16:00 -10°C° 0 mm 1 mps 742 mmHg 60%
    17:00 -10°C° 0 mm 1 mps 742 mmHg 64%
    18:00 -10°C° 0 mm 1 mps 742 mmHg 68%
    19:00 -10°C° 0 mm 1 mps 743 mmHg 69%
    20:00 -10°C° 0 mm 1 mps 743 mmHg 71%
    21:00 -11°C° 0 mm 0 mps 743 mmHg 72%
    22:00 -10°C° 0 mm 0 mps 743 mmHg 71%
    23:00 -10°C° 0 mm 0 mps 743 mmHg 69%
    Show more